Regional Weather Roundup
Issued by NWS New Orleans/Baton Rouge, LA

Home | Current Version | Previous Version | Graphics & Text | Print | Product List | Glossary On
Versions: 1 2 3 4 5 6 7 8 9 10 11 12 13 14 15 16 17 18 19 20 21 22 23 24 25 26 27 28 29 30 31 32 33 34 35 36 37 38 39 40 41 42 43 44 45 46 47 48 49 50
297
ASUS44 KLIX 210601
RWRLIX
NEW ORLEANS REGIONAL WEATHER ROUNDUP
NATIONAL WEATHER SERVICE NEW ORLEANS LA
100 AM CDT SUN SEP 21 2014

NOTE: "FAIR" INDICATES FEW OR NO CLOUDS BELOW 12,000 FEET WITH NO
      SIGNIFICANT WEATHER AND/OR OBSTRUCTIONS TO VISIBILITY.
      SKY/WX - SKY CONDITION AND SIGNIFICANT WEATHER.
      TMP - AIR TEMPERATURE.     DP    - DEWPOINT TEMPERATURE.
      RH  - RELATIVE HUMIDITY.   PRES  - PRESSURE.
      HI  - HEAT INDEX.          WCI   - WIND CHILL INDEX.

*  THESE STATIONS ARE NOT NWS OR FAA STATIONS AND ARE NOT UNDER
   NWS QUALITY CONTROL.

LAZ038-040-048-061>063-065>067-069-210700-
SOUTHEAST LOUISIANA

CITY           SKY/WX    TMP DP  RH WIND       PRES   REMARKS
N.O. AUDUBON     N/A     79  73  80 MISG        N/A
6HR MIN TEMP:  78; 6HR MAX TEMP:  83;

N.O. INTL ARPT CLEAR     78  68  71 NE5       29.97F
6HR MIN TEMP:  78; 6HR MAX TEMP:  83;

N.O. LAKEFRONT CLEAR     79  70  74 E9        29.98S
6HR MIN TEMP:  79; 6HR MAX TEMP:  82;

N.O. DOWNTOWN*   N/A     79  66  65 CALM      29.97F
6HR MIN TEMP:  79; 6HR MAX TEMP:  82;

SLIDELL        CLEAR     70  67  90 N5        29.98S
6HR MIN TEMP:  70; 6HR MAX TEMP:  81;

BATON ROUGE    CLEAR     71  69  93 NE3       29.99S
6HR MIN TEMP:  71; 6HR MAX TEMP:  81;

BOOTHVILLE     CLEAR     79  72  79 E6        29.95F
6HR MIN TEMP:  79; 6HR MAX TEMP:  81;

BELLE CHASSE   CLEAR     73  69  87 NE3       29.96F
6HR MIN TEMP:  73; 6HR MAX TEMP:  81;

BOGALUSA*        N/A     69  65  88 N5        30.02S
6HR MIN TEMP:  69; 6HR MAX TEMP:  82;

GALLIANO*      NOT AVBL
NEW ROADS*       N/A     71  71  98 CALM      29.99S FOG
6HR MIN TEMP:  71; 6HR MAX TEMP:  82;

GONZALES*        N/A     71  71 100 CALM      29.98S FOG
6HR MIN TEMP:  71; 6HR MAX TEMP:  78;

HAMMOND*       NOT AVBL
HOUMA*         CLEAR     71  67  85 CALM      29.96F FOG
6HR MIN TEMP:  71; 6HR MAX TEMP:  80;

PORT FOURCHON* PTCLDY    81  70  69 E12       29.98S

$$

MSZ070-080>082-210700-
SOUTHERN MISSISSIPPI

CITY           SKY/WX    TMP DP  RH WIND       PRES   REMARKS
MCCOMB         CLEAR     72  67  84 E6        30.01F
6HR MIN TEMP:  70; 6HR MAX TEMP:  83;

GULFPORT       CLEAR     72  67  84 N5        29.97F
6HR MIN TEMP:  72; 6HR MAX TEMP:  82;

BILOXI         CLEAR     72  67  83 NE5       29.98S
6HR MIN TEMP:  72; 6HR MAX TEMP:  81;

PASCAGOULA     CLEAR     67  65  93 CALM      29.98S
6HR MIN TEMP:  66; 6HR MAX TEMP:  78;


$$

COASTAL OBSERVATIONS
LAKE AND NEARSHORE STATIONS

STATION/POSITION TIME  TEMP    WIND        PRES    WAVE
                       AIR SEA DIR/SP/G            HT/PER
                 (UTC) (F)     (DEG/KT/KT) (MB)    (FT/S)
PASCAGOULA       0500   75      50/  8/ 11 1014.5
WAVELAND YACHT   0500   76      40/  8/  9 1014.5
GRAND ISLE       0500   80 82  100/ 10/ 14 1015.0
SOUTHWEST PASS   0500   81 89   70/ 18/ 20 1014.3
NEW CANAL        0500   78 81   80/  2/  3 1015.3
SHELL BEACH      0500   80 78   80/  8/ 10 1014.6

OFFSHORE STATIONS

STATION/POSITION TIME  TEMP    WIND        PRES    WAVE
                       AIR SEA DIR/SP/G            HT/PER
                 (UTC) (F)     (DEG/KT/KT) (MB)    (FT/S)
64 S DAUPHIN ISL 0539   81 84   70/ 14/ 17 1014.4    4/ 7

$$




USA.gov is the U.S. government's official web portal to all federal, state and local government web resources and services.